#timestamp,LO_Frequency,Hit,StdDev 
1645102815.2,286047000.7,N
1645102835.0,286046999.4,N
1645102835.9,286046999.4,N
1645102855.8,286046997.2,N
1645102875.6,286046999.6,N
1645102895.4,286046996.6,N
1645102915.3,286046999.4,N
1645102935.1,286046998.8,N
1645102955.9,286046998.8,N
1645102975.7,286046998.2,N
1645102995.5,286047000.2,N
1645103015.4,286047000.7,N
1645103035.2,286047000.3,N
1645103055.0,286047002.0,N
1645103056.0,286047002.0,N
1645103075.8,286047002.6,N
1645103095.6,286047002.2,N
1645103115.5,286047002.1,N
1645103135.3,286047002.6,N
1645103155.1,286047001.9,N
1645103175.9,286047002.8,N
1645103195.7,286047001.7,N
1645103215.6,286047002.6,N
1645103235.4,286047002.3,N
1645103255.2,286047002.7,N
1645103275.1,286047002.7,N
1645103276.0,286047002.7,N
1645103295.8,286047000.9,N
1645103315.6,286046999.8,N
1645103335.5,286047001.9,N
1645103355.3,286047001.6,N
1645103375.2,286047001.5,N
1645103395.9,286047001.9,N
1645103415.7,286047002.4,N
1645103435.6,286047002.8,N
1645103455.4,286047002.7,N
1645103475.3,286046999.7,N
1645103495.1,286047000.1,N
1645103496.0,286047000.1,N
1645103515.8,286047002.5,N
1645103535.7,286047004.2,Y
1645103555.5,286047000.1,P
1645103575.3,286047000.5,N
1645103595.2,286047000.6,N
1645103615.0,286047000.1,N
1645103615.9,286047000.1,N
1645103635.8,286047000.1,N
1645103655.6,286047000.4,N
1645103675.4,286047002.7,Y
1645103695.3,286047004.4,P
1645103715.1,286047000.1,N
1645103735.9,286047001.1,N
1645103755.7,286046999.9,N
1645103775.5,286047000.4,N
1645103795.4,286046996.5,N
1645103815.2,286046996.8,N
1645103835.0,286046998.6,N
1645103835.9,286046998.6,N
1645103855.8,286046998.2,N
1645103875.6,286047001.2,N
1645103895.5,286046998.9,N
1645103915.3,286046998.4,N
1645103935.1,286046996.5,N
1645103955.9,286046994.9,N
1645103975.7,286046996.0,N
1645103995.5,286046995.6,N
1645104015.4,286046997.1,N
1645104035.2,286046999.2,N
1645104055.1,286046998.1,N
1645104056.0,286046998.1,N
1645104075.8,286046998.9,N
1645104095.6,286047000.7,N
1645104115.5,286047001.0,N
1645104135.3,286047000.1,N
1645104155.1,286046999.8,N
1645104175.9,286047000.1,N
1645104195.7,286047002.8,N
1645104215.6,286047002.6,N
1645104235.4,286046999.7,N
1645104255.2,286047000.1,N
1645104275.1,286047000.8,N
1645104276.0,286047000.8,N
1645104295.8,286047000.8,N
1645104315.6,286047000.3,N
1645104335.5,286047000.7,N
1645104355.3,286046999.8,N
1645104375.1,286047000.6,N
1645104395.9,286046999.9,N
1645104415.7,286047000.7,N
1645104435.6,286047002.4,N
1645104455.4,286046999.9,N
1645104475.3,286047001.2,N
1645104495.1,286047001.2,N
1645104496.0,286047001.2,N
1645104515.8,286047001.0,N
1645104535.7,286047000.3,N
1645104555.5,286047002.7,N
1645104575.3,286047002.4,N
1645104595.2,286046998.9,N
1645104615.0,286046998.8,N
1645104615.9,286046998.8,N
1645104635.8,286046996.6,Y
1645104655.6,286046998.0,P
1645104675.4,286046995.3,P
1645104695.3,286046997.0,N
1645104715.1,286046997.1,N
1645104735.8,286046999.2,N
1645104755.7,286046999.5,N
1645104775.5,286046996.8,N
1645104795.4,286046995.0,Y
1645104815.2,286047000.8,P
1645104835.0,286046998.1,N
1645104835.9,286046998.1,N
1645104855.8,286047000.8,N
1645104875.6,286047001.0,N
1645104895.5,286046998.2,N
1645104915.3,286047000.8,N
1645104935.1,286046999.8,N
1645104955.9,286047002.8,N
1645104975.7,286047000.6,N
1645104995.5,286047001.2,N
1645105015.4,286046998.1,N
1645105035.2,286047000.2,N
1645105055.1,286047002.8,N
1645105056.0,286047002.8,N
1645105075.8,286047000.2,N
1645105095.6,286046999.9,N
1645105115.5,286047000.2,N
1645105135.3,286047000.0,N
1645105155.2,286047002.0,N
1645105175.9,286047002.7,N
1645105195.7,286046998.6,N
1645105215.6,286046998.1,N
1645105235.4,286046999.3,N
1645105255.2,286046998.6,N
1645105275.1,286046998.3,N
1645105276.0,286046998.3,N
1645105295.8,286046998.4,N
1645105315.7,286046998.5,N
1645105335.5,286046998.5,N
1645105355.3,286047001.2,N
1645105375.2,286047001.0,N
1645105395.0,286047000.8,N
1645105395.9,286047000.8,N
1645105415.8,286046999.8,N
1645105435.6,286047000.3,N
1645105455.4,286046999.7,N
1645105475.3,286046999.8,N
1645105495.1,286047000.2,N
1645105515.8,286047002.3,N
1645105535.7,286047001.8,N
1645105555.5,286046999.8,N
1645105575.4,286047001.2,N
1645105595.2,286047002.2,N
1645105615.0,286046998.4,N
1645105615.9,286046998.4,N
1645105635.8,286046998.9,N
1645105655.6,286047000.6,N
1645105675.5,286047000.6,N
1645105695.3,286047000.5,N
1645105715.1,286047001.2,N
1645105735.9,286047002.8,N
1645105755.7,286047002.6,N
1645105775.5,286047002.3,N
1645105795.4,286046999.8,N
1645105815.2,286047002.8,N
1645105835.1,286047000.2,N
1645105836.0,286047000.2,N
1645105855.8,286046998.4,N
1645105875.6,286046998.7,N
1645105895.5,286046998.8,N
1645105915.3,286046998.1,N
1645105935.1,286047001.1,N
1645105955.9,286047001.2,N
1645105975.7,286046999.9,N
1645105995.6,286047001.9,N
1645106015.4,286047000.3,N
1645106035.2,286046999.7,N
1645106055.1,286046998.6,N
1645106056.0,286046998.6,N
1645106075.8,286047001.1,N
1645106095.6,286047002.7,N
1645106115.5,286047002.4,N
1645106135.3,286047002.0,N
1645106155.1,286047001.8,N
1645106175.9,286047002.0,N
1645106195.7,286047002.8,N
1645106215.6,286047002.7,N
1645106235.4,286047001.8,N
1645106255.2,286047001.8,N
1645106275.1,286047002.6,N
1645106276.0,286047002.6,N
1645106295.8,286047000.5,N
1645106315.7,286047000.9,N
1645106335.5,286047002.3,N
1645106355.3,286047002.3,N
1645106375.2,286047001.9,N
1645106395.9,286047001.9,N
